Weather History for KPRB - August, 2014

Change the Weather History Date:

Thursday, August 28, 2014

  Actual Average Record
Temperature  
Mean Temperature 72 °F 72 °F  
Max Temperature 95 °F 92 °F 107 °F (1998)
Min Temperature 48 °F 53 °F 44 °F (1955)
Degree Days  
Heating Degree Days 0 0  
Month to date heating degree days 0 0  
Since 1 June heating degree days 11 31  
Since 1 July heating degree days 0 4  
Cooling Degree Days 7 8  
Month to date cooling degree days 234 237  
Year to date cooling degree days 963 714  
Since 1 June cooling degree days 810 646  
Growing Degree Days 20 (Base 50)    
Moisture  
Dew Point 44 °F    
Average Humidity 50    
Maximum Humidity 93    
Minimum Humidity 6    
Precipitation  
Precipitation 0.00 in 0.01 in 0.00 in (2015)
Month to date precipitation 0.00 0.10  
Year to date precipitation 4.46 8.89  
Since 1 July precipitation T 0.10  
Sea Level Pressure  
Sea Level Pressure 30.01 in    
Wind  
Wind Speed 6 mph (West)    
Max Wind Speed 22 mph    
Max Gust Speed 26 mph    
Visibility 8 miles    
Events Fog    
T = Trace of Precipitation, MM = Missing Value Source: NWS Daily Summary

Daily Weather History Graph

Daily Weather History Graph

Search for Another Location

Airport or City:

Trip Planner

Search our weather history database for the weather conditions in past years. The results will help you decide how hot, cold, wet, or windy it might be!

Date:

Astronomy

Aug. 28, 2014 Rise Set
Actual Time 6:31 AM PDT 7:35 PM PDT
Civil Twilight 6:05 AM PDT 8:01 PM PDT
Nautical Twilight 5:34 AM PDT 8:32 PM PDT
Astronomical Twilight 5:01 AM PDT 9:04 PM PDT
Moon 9:21 AM PDT (8/28) 9:10 PM PDT (8/28)
Length of Visible Light 13h 56m
Length of Day
13h 03m
Waxing Crescent, 9% of the Moon is Illuminated
Aug 28
Waxing Crescent
Sep 2
First Quarter
Sep 8
Full
Sep 15
Last Quarter
Sep 23
New

Hourly Weather History & Observations

Time (PDT) Temp. Dew Point Humidity Pressure Visibility Wind Dir Wind Speed Gust Speed Precip Events Conditions
12:53 AM 61.0 °F 50.0 °F 67% 30.05 in 10.0 mi Calm Calm - N/A   Clear
1:53 AM 57.9 °F 48.0 °F 70% 30.06 in 10.0 mi Calm Calm - N/A   Clear
2:53 AM 55.0 °F 45.0 °F 69% 30.05 in 10.0 mi Calm Calm - N/A   Clear
3:53 AM 54.0 °F 46.0 °F 75% 30.04 in 10.0 mi Calm Calm - N/A   Clear
4:53 AM 52.0 °F 43.0 °F 71% 30.04 in 10.0 mi Calm Calm - N/A   Clear
5:53 AM 51.1 °F 44.1 °F 77% 30.04 in 10.0 mi Calm Calm - N/A   Clear
6:43 AM 48.9 °F 44.1 °F 83% 30.07 in 1.5 mi NW 3.5 mph - N/A   Haze
6:46 AM 48.0 °F 44.1 °F 86% 30.06 in 0.2 mi Calm Calm - N/A Fog Fog
6:53 AM 48.0 °F 46.0 °F 93% 30.06 in 0.2 mi Calm Calm - N/A Fog Fog
7:07 AM 48.0 °F 45.0 °F 89% 30.07 in 1.0 mi Calm Calm - N/A   Mist
7:10 AM 48.0 °F 45.0 °F 89% 30.07 in 3.0 mi NW 3.5 mph - N/A   Overcast
7:51 AM 51.8 °F 46.4 °F 82% 30.07 in 10.0 mi North 3.5 mph - N/A   Mostly Cloudy
7:53 AM 51.1 °F 46.9 °F 86% 30.06 in 5.0 mi North 3.5 mph - N/A   Mostly Cloudy
7:57 AM 51.1 °F 48.0 °F 89% 30.07 in 1.8 mi North 3.5 mph - N/A   Mostly Cloudy
8:13 AM 52.0 °F 48.0 °F 86% 30.07 in 3.0 mi West 3.5 mph - N/A   Mostly Cloudy
8:31 AM 54.0 °F 48.9 °F 83% 30.07 in 10.0 mi Calm Calm - N/A   Partly Cloudy
8:53 AM 55.9 °F 50.0 °F 80% 30.06 in 10.0 mi NW 3.5 mph - N/A   Clear
9:53 AM 66.0 °F 50.0 °F 56% 30.04 in 10.0 mi WNW 3.5 mph - N/A   Clear
10:53 AM 72.0 °F 46.9 °F 41% 30.03 in 10.0 mi Variable 4.6 mph - N/A   Clear
11:53 AM 81.0 °F 46.9 °F 30% 30.00 in 10.0 mi Variable 3.5 mph - N/A   Clear
12:53 PM 89.1 °F 37.0 °F 16% 29.97 in 10.0 mi Variable 3.5 mph - N/A   Clear
1:53 PM 93.9 °F 30.9 °F 11% 29.94 in 10.0 mi Variable 6.9 mph - N/A   Clear
2:53 PM 93.9 °F 15.1 °F 6% 29.93 in 10.0 mi SW 12.7 mph - N/A   Clear
3:53 PM 88.0 °F 39.9 °F 18% 29.92 in 10.0 mi SSW 20.7 mph - N/A   Clear
4:53 PM 87.1 °F 37.0 °F 17% 29.91 in 10.0 mi SSW 20.7 mph - N/A   Clear
5:53 PM 82.0 °F 39.9 °F 22% 29.90 in 10.0 mi SSW 17.3 mph - N/A   Clear
6:53 PM 79.0 °F 39.9 °F 25% 29.90 in 10.0 mi SSW 15.0 mph - N/A   Clear
7:53 PM 73.0 °F 46.9 °F 39% 29.92 in 10.0 mi SSW 12.7 mph - N/A   Clear
8:53 PM 71.1 °F 46.9 °F 42% 29.94 in 10.0 mi SW 8.1 mph - N/A   Clear
9:53 PM 69.1 °F 54.0 °F 58% 29.95 in 10.0 mi NW 9.2 mph - N/A   Clear
10:53 PM 66.9 °F 54.0 °F 63% 29.95 in 10.0 mi Calm Calm - N/A   Clear
11:53 PM 63.0 °F 50.0 °F 63% 29.94 in 10.0 mi Calm Calm - N/A   Clear